Augusta, ME

4:19 AM EDT on May 21, 2018 (GMT -0400)
Augusta State

Weather History for KAUG - February, 2014

Change the Weather History Date:

Thursday, February 27, 2014

  Actual Average Record
Temperature  
Mean Temperature 11 °F 26 °F  
Max Temperature 21 °F 35 °F 56 °F (1976)
Min Temperature 1 °F 18 °F -11 °F (1963)
Degree Days  
Heating Degree Days 54 39  
Month to date heating degree days 1134  
Since 1 July heating degree days 5305  
Cooling Degree Days 0 0  
Month to date cooling degree days 0  
Year to date cooling degree days 0  
Moisture  
Dew Point 2 °F    
Average Humidity 65    
Maximum Humidity 92    
Minimum Humidity 39    
Precipitation  
Precipitation 0.00 in 0.10 in 0.84 in (2002)
Month to date precipitation 2.34  
Year to date precipitation 4.95  
Sea Level Pressure  
Sea Level Pressure 29.72 in    
Wind  
Wind Speed 4 mph (SSW)    
Max Wind Speed 12 mph    
Max Gust Speed 20 mph    
Visibility 9 miles    
Events Snow    
T = Trace of Precipitation, MM = Missing Value Source: NWS Daily Summary

Daily Weather History Graph

Daily Weather History Graph

Search for Another Location

Airport or City:

Astronomy

Feb. 27, 2014 Rise Set
Actual Time 6:19 AM EST 5:24 PM EST
Civil Twilight 5:50 AM EST 5:53 PM EST
Nautical Twilight 5:17 AM EST 6:27 PM EST
Astronomical Twilight 4:43 AM EST 7:01 PM EST
Moon 4:52 AM EST (2/27) 3:44 PM EST (2/27)
Length of Visible Light 12h 03m
Length of Day
11h 04m
Waning Crescent, 4% of the Moon is Illuminated
Feb 27
Waning Crescent
Mar 1
New
Mar 8
First Quarter
Mar 16
Full
Mar 23
Last Quarter

Hourly Weather History & Observations

Time (EST) Temp. Windchill Dew Point Humidity Pressure Visibility Wind Dir Wind Speed Gust Speed Precip Events Conditions
12:53 AM 7.0 °F -1.7 °F -8.0 °F 51% 29.83 in 10.0 mi North 4.6 mph - N/A   Clear
1:53 AM 8.1 °F - -7.1 °F 50% 29.83 in 10.0 mi Calm Calm - N/A   Clear
2:53 AM 6.1 °F - -6.0 °F 58% 29.83 in 10.0 mi Calm Calm - N/A   Clear
3:53 AM 3.0 °F - -2.9 °F 76% 29.83 in 10.0 mi Calm Calm - N/A   Clear
4:53 AM 3.9 °F - -2.0 °F 76% 29.82 in 10.0 mi Calm Calm - N/A   Scattered Clouds
5:53 AM 1.9 °F - -2.9 °F 80% 29.80 in 10.0 mi Calm Calm - N/A   Overcast
6:53 AM 3.0 °F -4.4 °F -4.0 °F 73% 29.78 in 9.0 mi NNE 3.5 mph - N/A   Mostly Cloudy
7:53 AM 7.0 °F - -2.9 °F 64% 29.78 in 9.0 mi Calm Calm - N/A   Clear
8:53 AM 10.0 °F 0.4 °F -4.0 °F 53% 29.76 in 10.0 mi SE 5.8 mph - N/A   Overcast
9:53 AM 14.0 °F 3.9 °F -7.1 °F 39% 29.73 in 10.0 mi East 6.9 mph - N/A   Partly Cloudy
10:53 AM 16.0 °F 7.4 °F -4.0 °F 41% 29.70 in 10.0 mi SSE 5.8 mph - N/A   Overcast
11:53 AM 17.1 °F 8.7 °F -0.9 °F 45% 29.68 in 10.0 mi South 5.8 mph - N/A   Overcast
12:53 PM 19.0 °F 7.5 °F 5.0 °F 54% 29.63 in 10.0 mi SSE 10.4 mph - N/A   Overcast
1:53 PM 21.0 °F 9.9 °F 3.9 °F 48% 29.61 in 10.0 mi South 10.4 mph - N/A   Overcast
2:53 PM 21.0 °F 10.6 °F 1.9 °F 44% 29.60 in 10.0 mi SSW 9.2 mph - N/A   Mostly Cloudy
3:53 PM 21.0 °F 13.4 °F 3.0 °F 46% 29.61 in 10.0 mi WSW 5.8 mph - N/A   Overcast
4:53 PM 21.0 °F 12.4 °F 1.9 °F 44% 29.62 in 10.0 mi Variable 6.9 mph - N/A   Overcast
5:53 PM 18.0 °F 7.7 °F 10.9 °F 74% 29.65 in 10.0 mi South 8.1 mph - N/A   Overcast
6:53 PM 16.0 °F 10.4 °F 12.0 °F 84% 29.66 in 10.0 mi SSW 3.5 mph - N/A   Mostly Cloudy
7:53 PM 14.0 °F 6.5 °F 10.9 °F 88% 29.67 in 10.0 mi South 4.6 mph - N/A   Clear
8:53 PM 14.0 °F - 10.0 °F 84% 29.68 in 10.0 mi Calm Calm - N/A   Mostly Cloudy
9:53 PM 10.9 °F - 9.0 °F 92% 29.69 in 8.0 mi Calm Calm - N/A   Clear
10:53 PM 10.0 °F - 8.1 °F 92% 29.71 in 8.0 mi Calm Calm - N/A   Scattered Clouds
11:27 PM 14.0 °F 0.5 °F 9.0 °F 80% 29.70 in 2.5 mi West 11.5 mph 19.6 mph 0.00 in Snow Light Snow
11:31 PM 12.9 °F -0.2 °F 9.0 °F 84% 29.70 in 3.0 mi West 10.4 mph - 0.00 in Snow Light Snow
11:53 PM 12.9 °F -0.2 °F 8.1 °F 81% 29.74 in 8.0 mi West 10.4 mph - 0.00 in   Overcast